[[{"header":{"parameterUnit":"m.s-1","parameterCategory":1,"la1":30.2991,"la2":30.254,"lo1":-89.0895,"lo2":-89.0444,"dy":0.0017,"dx":0.0017,"nx":28,"ny":28,"refTime":"2025-06-21T21:00:00:Z","depth":0,"parameterNumber":2,"parameterNumberName":"U-component_of_WINDS"},"data":[0,0,0,0,0,0,0,0,0,0,0,0,0,0,0,0,0,0,0,0,0,0,0,0,0,0,0,0,0,0,0,0,0,0,0,0,0,0,0,0,0,0,0,0,0,0,0,0,0,0,0,0,0,0,0,0,0,0,-0.606,-0.606,0,-0.6053,-0.6053,-0.6053,-0.6019,-0.6018,-0.6017,-0.6017,-0.6011,-0.6012,-0.6012,0,0,0,0,0,0,0,0,0,0,0,0,0,-0.6046,-0.6047,-0.606,-0.606,-0.606,-0.6053,-0.6053,-0.6053,-0.6019,-0.6018,-0.6017,-0.6016,-0.6011,-0.6011,-0.6012,0,0,0,0,0,0,0,0,0,0,0,0,0,-0.6047,-0.6047,-0.606,-0.6042,-0.6041,-0.6053,-0.6053,-0.6053,-0.6019,-0.6018,-0.6017,-0.6016,-0.6011,-0.6011,-0.6012,-0.6042,0,0,-0.6015,-0.6015,0,0,0,0,0,0,0,0,-0.6047,-0.6048,-0.6045,-0.6044,-0.6042,-0.6036,-0.6046,-0.6049,-0.602,-0.6028,-0.6017,-0.6015,-0.602,-0.602,-0.6022,-0.6042,-0.6041,-0.6015,-0.6016,-0.6016,-0.6016,0,0,0,0,0,0,0,-0.6047,-0.6048,-0.6057,-0.6045,-0.6043,-0.6035,-0.6034,-0.6046,-0.6031,-0.6027,-0.6024,-0.6024,-0.6019,-0.6021,-0.6021,-0.6041,-0.6015,-0.6016,-0.6016,-0.6017,-0.6086,-0.6088,0,0,0,0,0,0,-0.6049,-0.6048,-0.6058,-0.6057,-0.6041,-0.6036,-0.6035,-0.6039,-0.6031,-0.6028,-0.6025,-0.6022,-0.602,-0.602,-0.6021,-0.6056,-0.6016,-0.6017,-0.6017,-0.6085,-0.6087,-0.6088,0,0,0,0,0,0,-0.6049,-0.6051,-0.6058,-0.6052,-0.6052,-0.6038,-0.6043,-0.6039,-0.6041,-0.6029,-0.6026,-0.6029,-0.6019,-0.602,-0.6037,-0.6055,-0.6017,-0.6018,-0.6083,-0.6085,-0.6087,-0.6125,0,0,0,0,0,0,-0.6049,-0.6051,-0.6061,-0.6052,-0.6053,-0.6074,-0.6044,-0.604,-0.6043,-0.6039,-0.6033,-0.603,-0.6018,-0.6036,-0.6038,-0.6056,-0.6019,-0.6082,-0.6084,-0.6087,-0.6122,-0.6128,-0.6133,0,0,0,0,0,-0.6049,-0.6073,-0.6062,-0.6063,-0.6066,-0.6075,-0.6075,-0.606,-0.6044,-0.6055,-0.6047,-0.6031,-0.6053,-0.6038,-0.604,-0.6058,-0.6081,-0.6084,-0.6086,-0.612,-0.6127,-0.6133,0,0,0,0,0,0,-0.6084,-0.6071,-0.6059,-0.6081,-0.6079,-0.6069,-0.6082,-0.6068,-0.6071,-0.6068,-0.605,-0.6048,-0.6069,-0.6065,-0.6049,-0.6087,-0.6064,-0.6067,-0.6088,-0.6095,-0.6101,-0.6101,-0.602,0,0,0,0,0,-0.6095,-0.6103,-0.6091,-0.6111,-0.6111,-0.6097,-0.61,-0.6089,-0.6087,-0.6086,-0.6079,-0.6078,-0.6085,-0.609,-0.6095,-0.6121,-0.612,-0.6135,-0.6141,-0.6145,-0.6148,-0.6163,-0.6169,-0.6098,-0.6098,-0.6098,0,0,-0.6117,-0.611,-0.6116,-0.6118,-0.6116,-0.6125,-0.6097,-0.6108,-0.6115,-0.6088,-0.6104,-0.6099,-0.6097,-0.6119,-0.6128,-0.6116,-0.6168,-0.6149,-0.6153,-0.6153,-0.6166,-0.6173,-0.6179,-0.61,-0.6099,-0.6099,0,0,-0.6161,-0.6157,-0.6173,-0.6171,-0.6167,-0.6158,-0.6162,-0.6154,-0.615,-0.6166,-0.6146,-0.6154,-0.6166,-0.6165,-0.6166,-0.6211,-0.6196,-0.6213,-0.6242,-0.6256,-0.6262,-0.6267,-0.6283,-0.6289,-0.6216,-0.6217,-0.6217,0,-0.6189,-0.6201,-0.6184,-0.6196,-0.6198,-0.6174,-0.6191,-0.619,-0.6188,-0.619,-0.6177,-0.6191,-0.6188,-0.621,-0.6221,-0.6222,-0.6227,-0.6214,-0.6262,-0.6267,-0.6271,-0.6287,-0.6293,-0.6219,-0.6218,-0.6218,-0.6218,0,-0.6236,-0.6245,-0.6259,-0.6258,-0.6261,-0.6276,-0.6261,-0.6267,-0.6255,-0.6247,-0.6264,-0.6259,-0.6263,-0.6268,-0.6257,-0.6288,-0.6281,-0.6265,-0.6242,-0.6281,-0.6295,-0.6301,-0.6222,-0.6221,-0.622,-0.622,0,0,-0.6303,-0.6292,-0.6297,-0.6296,-0.6291,-0.6298,-0.6312,-0.6315,-0.6321,-0.6321,-0.6332,-0.6343,-0.6328,-0.633,-0.6318,-0.6331,-0.6367,-0.6313,-0.6313,-0.6324,-0.6403,-0.6415,-0.6422,-0.6357,-0.6358,-0.6359,-0.6403,0,-0.6346,-0.6368,-0.6353,-0.6379,-0.6387,-0.6364,-0.6377,-0.6375,-0.6368,-0.6375,-0.6368,-0.6376,-0.6355,-0.6356,-0.6367,-0.636,-0.6383,-0.6357,-0.6368,-0.6369,-0.637,-0.6429,-0.6442,-0.6484,-0.6408,-0.6409,-0.641,0,-0.6399,-0.64,-0.6427,-0.6419,-0.6422,-0.6434,-0.6436,-0.6443,-0.644,-0.6435,-0.6436,-0.6422,-0.6436,-0.6413,-0.6432,-0.6415,-0.6418,-0.6416,-0.6417,-0.6418,-0.6392,-0.6433,-0.6497,-0.6504,-0.6419,-0.6418,-0.6417,0,-0.6446,-0.6455,-0.6472,-0.6472,-0.6463,-0.6472,-0.6469,-0.6465,-0.6469,-0.6471,-0.6473,-0.6477,-0.648,-0.6484,-0.6471,-0.6455,-0.6493,-0.6468,-0.6489,-0.6489,-0.6498,-0.6498,-0.6565,-0.65,-0.65,-0.6499,-0.6499,0,-0.6496,-0.6513,-0.6493,-0.6503,-0.6522,-0.6505,-0.6524,-0.6519,-0.6516,-0.6525,-0.6506,-0.6515,-0.6498,-0.6506,-0.6496,-0.6514,-0.6515,-0.6511,-0.6509,-0.6513,-0.6514,-0.6516,-0.6513,-0.6501,-0.6501,-0.65,-0.65,0,-0.6552,-0.6539,-0.6556,-0.6546,-0.6545,-0.6559,-0.6551,-0.6561,-0.6553,-0.6565,-0.6567,-0.6555,-0.6563,-0.6551,-0.6558,-0.6551,-0.6576,-0.6569,-0.6577,-0.6575,-0.6597,-0.6595,-0.6668,-0.6677,-0.6606,-0.6606,-0.6607,0,-0.6584,-0.6597,-0.6589,-0.6594,-0.6592,-0.66,-0.6603,-0.6587,-0.6591,-0.659,-0.66,-0.6606,-0.6611,-0.6626,-0.6618,-0.6623,-0.6616,-0.6641,-0.6617,-0.6621,-0.6617,-0.6617,-0.6618,-0.6646,-0.6647,-0.6648,-0.6649,0,-0.6645,-0.6638,-0.6643,-0.6646,-0.665,-0.6652,-0.6652,-0.6658,-0.664,-0.6646,-0.6655,-0.6658,-0.6665,-0.6672,-0.6676,-0.6674,-0.6659,-0.6656,-0.6661,-0.6667,-0.6671,-0.667,-0.6591,-0.6655,-0.6654,-0.6654,-0.6653,-0.6653,-0.669,-0.6701,-0.6697,-0.6703,-0.6702,-0.6703,-0.6711,-0.6704,-0.671,-0.6715,-0.6705,-0.6716,-0.6713,-0.6716,-0.6716,-0.6724,-0.6714,-0.6721,-0.6723,-0.6725,-0.6729,-0.6669,-0.6725,-0.6725,-0.6725,-0.6724,-0.6724,0,-0.675,-0.6746,-0.6752,-0.6753,-0.6759,-0.6743,-0.6743,-0.6749,-0.6758,-0.6757,-0.6762,-0.6772,-0.6779,-0.6771,-0.6777,-0.6785,-0.6779,-0.6787,-0.6787,-0.6787,-0.6738,-0.6733,-0.6793,-0.6793,-0.6793,-0.6793,-0.6793,-0.6793,-0.6782,-0.6799,-0.6791,-0.6807,-0.6803,-0.6813,-0.6815,-0.6816,-0.6815,-0.6826,-0.6832,-0.6826,-0.6823,-0.6828,-0.6834,-0.6832,-0.6835,-0.6847,-0.6842,-0.6797,-0.679,-0.6784,-0.6779,-0.6847,-0.6847,-0.689,-0.6891,-0.6891]},{"header":{"parameterUnit":"m.s-1","parameterCategory":1,"la1":30.2991,"la2":30.254,"lo1":-89.0895,"lo2":-89.0444,"dy":0.0017,"dx":0.0017,"nx":28,"ny":28,"refTime":"2025-06-21T21:00:00:Z","depth":0,"parameterNumber":3,"parameterNumberName":"V-component_of_WINDS"},"data":[0,0,0,0,0,0,0,0,0,0,0,0,0,0,0,0,0,0,0,0,0,0,0,0,0,0,0,0,0,0,0,0,0,0,0,0,0,0,0,0,0,0,0,0,0,0,0,0,0,0,0,0,0,0,0,0,0,0,2.9535,2.9535,0,2.9553,2.9554,2.9554,2.9522,2.9521,2.952,2.9519,2.9537,2.9538,2.9539,0,0,0,0,0,0,0,0,0,0,0,0,0,2.9469,2.9471,2.9535,2.9535,2.9535,2.9553,2.9554,2.9554,2.9523,2.9521,2.952,2.9519,2.9536,2.9538,2.954,0,0,0,0,0,0,0,0,0,0,0,0,0,2.9494,2.9471,2.9535,2.9522,2.9521,2.9553,2.9554,2.9554,2.9523,2.9521,2.952,2.9518,2.9536,2.9538,2.954,2.9585,0,0,2.9546,2.9547,0,0,0,0,0,0,0,0,2.9493,2.9496,2.9524,2.9523,2.9522,2.9534,2.9537,2.9564,2.9523,2.9522,2.9519,2.9517,2.9537,2.9539,2.9546,2.9586,2.9587,2.9547,2.9548,2.9549,2.955,0,0,0,0,0,0,0,2.9491,2.9495,2.9542,2.9524,2.9523,2.9514,2.9516,2.9542,2.9538,2.9522,2.952,2.9523,2.9536,2.9544,2.9546,2.9587,2.9547,2.9549,2.955,2.9551,2.9663,2.9665,0,0,0,0,0,0,2.9491,2.9494,2.9541,2.9543,2.9503,2.9517,2.9519,2.9532,2.9538,2.9537,2.9524,2.9521,2.9541,2.9543,2.9546,2.9598,2.9549,2.9551,2.9552,2.9662,2.9664,2.9666,0,0,0,0,0,0,2.949,2.9496,2.9541,2.9518,2.9523,2.952,2.9534,2.9533,2.954,2.9539,2.9538,2.9533,2.954,2.9543,2.9575,2.9599,2.9552,2.9554,2.966,2.9662,2.9665,2.9704,0,0,0,0,0,0,2.9488,2.9495,2.9513,2.9518,2.9524,2.957,2.9536,2.9534,2.9545,2.9541,2.9547,2.9547,2.9539,2.9572,2.9578,2.9601,2.9556,2.9658,2.9661,2.9664,2.97,2.9707,2.9713,0,0,0,0,0,2.9486,2.9523,2.9514,2.952,2.9547,2.9572,2.9575,2.9566,2.9547,2.9564,2.9563,2.9546,2.9596,2.9576,2.9582,2.9606,2.9656,2.966,2.9664,2.9697,2.9706,2.9713,0,0,0,0,0,0,2.952,2.9524,2.9514,2.9554,2.9563,2.9566,2.9588,2.9575,2.9589,2.9585,2.9572,2.9574,2.9608,2.961,2.9588,2.9649,2.9622,2.9628,2.9646,2.9654,2.9661,2.9659,2.9557,0,0,0,0,0,2.9533,2.9554,2.9555,2.9591,2.9596,2.9591,2.9602,2.9594,2.9602,2.9606,2.9607,2.9615,2.9632,2.9644,2.9659,2.9701,2.9701,2.972,2.9727,2.9732,2.9736,2.9757,2.9765,2.9678,2.9678,2.9678,0,0,2.9559,2.9563,2.9577,2.9598,2.9604,2.9624,2.9594,2.9618,2.9633,2.9609,2.9639,2.964,2.9648,2.9685,2.9701,2.9688,2.976,2.9737,2.9741,2.9742,2.9761,2.9769,2.9777,2.9681,2.968,2.968,0,0,2.9615,2.9622,2.9651,2.9658,2.9667,2.9664,2.9671,2.9676,2.9676,2.9706,2.9688,2.9706,2.9736,2.9742,2.9749,2.9808,2.9792,2.9813,2.9846,2.9867,2.9873,2.9879,2.9899,2.9906,2.9818,2.9818,2.9818,0,2.9646,2.9677,2.9668,2.9692,2.9701,2.9681,2.971,2.9717,2.9731,2.9737,2.9722,2.9759,2.9763,2.98,2.9814,2.9821,2.9828,2.9812,2.9873,2.9879,2.9884,2.9903,2.991,2.982,2.982,2.982,2.9819,0,2.9713,2.9735,2.9758,2.9772,2.9784,2.981,2.9804,2.9817,2.9808,2.9806,2.9836,2.9841,2.9856,2.9865,2.9857,2.99,2.9892,2.9876,2.9848,2.9895,2.9912,2.9919,2.9823,2.9823,2.9822,2.9821,0,0,2.9792,2.98,2.9809,2.9814,2.9823,2.9839,2.9864,2.988,2.989,2.9901,2.9921,2.9947,2.9931,2.9939,2.9932,2.995,2.9994,2.9931,2.9931,2.9941,3.004,3.0051,3.006,2.9984,2.9986,2.9987,3.0039,0,2.9847,2.9891,2.9883,2.9926,2.9945,2.9926,2.9948,2.9955,2.9954,2.9969,2.9967,2.9985,2.9965,2.9969,2.9986,2.9985,3.0013,2.9981,3.0001,3.0002,2.9998,3.0069,3.0081,3.013,3.0046,3.0047,3.0048,0,2.9918,2.993,2.9975,2.9979,2.9987,3.0007,3.002,3.0035,3.0043,3.004,3.0049,3.0038,3.0062,3.0036,3.0068,3.0046,3.0054,3.0055,3.0056,3.0056,3.0027,3.0069,3.0146,3.0152,3.0058,3.0058,3.0057,0,2.9968,2.9997,3.0027,3.0032,3.0039,3.0053,3.0056,3.0062,3.0071,3.0083,3.0088,3.0103,3.011,3.0121,3.0113,3.0095,3.0146,3.0119,3.0143,3.0144,3.0154,3.0153,3.0231,3.0162,3.0162,3.0162,3.0162,0,3.003,3.0057,3.0049,3.0067,3.0097,3.0088,3.0117,3.0118,3.0123,3.014,3.0125,3.0142,3.0131,3.0147,3.0141,3.0167,3.0171,3.0169,3.0167,3.017,3.017,3.0173,3.0169,3.0164,3.0163,3.0163,3.0163,0,3.0091,3.0087,3.0118,3.0121,3.0123,3.0144,3.0147,3.0163,3.0161,3.0183,3.0187,3.0184,3.0201,3.0195,3.0213,3.0209,3.0243,3.0237,3.024,3.0238,3.0262,3.0259,3.0343,3.0353,3.028,3.028,3.0281,0,3.013,3.015,3.0156,3.0167,3.0171,3.0189,3.0198,3.0189,3.02,3.0209,3.0224,3.024,3.0252,3.028,3.0279,3.0292,3.0286,3.0314,3.0288,3.0289,3.0284,3.0282,3.0283,3.0319,3.032,3.0321,3.0321,0,3.0199,3.0195,3.021,3.0224,3.0236,3.0246,3.0255,3.0265,3.0256,3.0269,3.0286,3.0296,3.0314,3.033,3.0342,3.0344,3.0331,3.033,3.0336,3.0338,3.0338,3.0337,3.0253,3.0328,3.0327,3.0327,3.0326,3.0326,3.0249,3.0265,3.0272,3.0288,3.0294,3.0302,3.0318,3.0317,3.0332,3.0346,3.034,3.036,3.0366,3.0381,3.0385,3.04,3.0388,3.0398,3.0399,3.0401,3.0404,3.0337,3.0402,3.0402,3.0402,3.0402,3.0401,0,3.0315,3.0318,3.0333,3.0346,3.0359,3.0346,3.0355,3.0366,3.0384,3.0391,3.0403,3.0422,3.0437,3.0437,3.045,3.0462,3.0456,3.0466,3.0464,3.0464,3.0414,3.0406,3.047,3.047,3.047,3.047,3.047,3.047,3.0351,3.0378,3.0375,3.0405,3.0408,3.0427,3.0433,3.044,3.0446,3.0468,3.048,3.048,3.0484,3.0497,3.051,3.0509,3.0514,3.0526,3.0523,3.0475,3.0468,3.0462,3.0454,3.0527,3.0527,3.0572,3.0572,3.0572]}]]